Location: Domont
(49.0278°N, 2.3264°E)
Time: 12:07:33
(UTC+00:00)

NOAA 18 - Pass Details

Date: 29 June 2022
Orbit: 839 x 860 km, 98.9° (Epoch: 10 August)

Event Time Altitude Azimuth Distance (km) Brightness Sun altitude
Exits shadow 23:03:03 - 226° (SW) 2,954 7.7 -16.9°
Reaches altitude 10° 23:05:05 10° 242° (WSW) 2,482 7.5 -17.0°
Maximum altitude 23:07:55 14° 274° (W) 2,204 7.5 -17.0°
Drops below altitude 10° 23:10:47 10° 305° (NW) 2,498 8.3 -17.1°
Sets 23:14:27 0° 330° (NNW) 3,444 9.7 -17.2°
